User: anonymous
Location: Sperry Observatory
(40.6664°N, 74.3236°W)
Time: 09:32:30
(UTC-04:00)
Language:

JAS-2 - Orbit

View from above orbital plane
View from above orbital plane
View from above satellite
View from above satellite

Ground track
Ground track

The orbit data is extracted from the following two-line orbital elements,

1 24278U 96046B   14291.50410102 -.00000011  00000-0  26041-4 0  4971
2 24278 098.5156 288.3482 0349928 337.8331 135.6242 13.53032561897340
Epoch (UTC): 18 October 2014 12:05:54
Eccentricity: 0.0349928
inclination: 98.5156°
perigee height: 801 km
apogee height: 1321 km
right ascension of ascending node: 288.3482°
argument of perigee: 337.8331°
revolutions per day: 13.53032561
mean anomaly at epoch: 135.6242°
orbit number at epoch: 89734

The dashed part of the orbit path shows where the satellite is in the earth's shadow,  

DLR